Regional Weather Roundup
Issued by NWS Newport/Morehead, NC

Current Version | Previous Version | Text Only | Print | Product List | Glossary On
Versions: 1 2 3 4 5 6 7 8 9 10 11 12 13 14 15 16 17 18 19 20 21 22 23 24 25 26 27 28 29 30 31 32 33 34 35 36 37 38 39 40 41 42 43 44 45 46 47 48 49 50
000 ASUS42 KMHX 270025 RWRMHX WEATHER ROUNDUP FOR EASTERN NORTH CAROLINA NATIONAL WEATHER SERVICE NEWPORT/MOREHEAD CITY NC 800 PM EDT FRI MAY 26 2017 NOTE: "FAIR" INDICATES FEW OR NO CLOUDS BELOW 12,000 FEET WITH NO SIGNIFICANT WEATHER AND/OR OBSTRUCTIONS TO VISIBILITY NCZ015>017-031-032-045>047-102-103-270100- NORTH COAST CITY SKY/WX TMP DP RH WIND PRES REMARKS EDENTON CLEAR 78 60 52 CALM 29.89R ELIZABETH CITY CLEAR 72 59 63 SW6 29.88R KITTY HAWK CLEAR 74 59 59 CALM 29.87R MANTEO CLEAR 74 60 61 NW3 29.89R $$ NCZ045>047-081-094-103-104-270100- CENTRAL COAST CITY SKY/WX TMP DP RH WIND PRES REMARKS FRISCO CLEAR 76 64 66 SW8 29.90R $$ NCZ095-097-098-100-101-270100- SOUTHERN COAST CITY SKY/WX TMP DP RH WIND PRES REMARKS BEAUFORT CLEAR 75 68 78 SW15 29.91R CEDAR ISLAND NOT AVBL JACKSONVILLE CLEAR 77 58 51 W5 29.90R PINEY ISLAND CLEAR N/A N/A N/A SW6 29.90R WILMINGTON CLEAR 76 63 64 SW8 29.92R $$ NCZ011>013-027>030-043-044-078>080-089-090>093-098-270100- COASTAL PLAIN CITY SKY/WX TMP DP RH WIND PRES REMARKS AHOSKIE NOT AVBL CLINTON CLEAR 77 59 53 CALM 29.92R ELIZABETHTOWN CLEAR 80 56 42 W3 29.92R GOLDSBORO CLEAR 78 56 46 W5 29.89R GREENVILLE CLEAR 77 57 50 W5 29.93R HAVELOCK CLEAR 78 54 43 NW8 29.91R KENANSVILLE CLEAR 73 61 64 CALM 29.91R KINSTON CLEAR 77 55 47 CALM 29.91R NEW BERN CLEAR 77 57 50 NW5 29.91R RICHLANDS CLEAR 75 60 59 CALM 29.91R ROCKY MOUNT CLEAR 73 61 65 S3 29.90R WASHINGTON CLEAR 75 57 53 W5 29.90R WHITEVILLE CLEAR 77 56 49 CALM 29.92S $$ AMZ130-135-150-152-154-156-158-170-250-252-270-ANZ085-086-088-633-658-670-270100- MARINE OBSERVATIONS STATION/POSITION TIME TEMP WIND PRES WAVE SWELL AIR SEA DIR/SP/G HT/PER HT/PER (UTC) (F) (DEG/KT/KT) (MB) (FT/S) (FT/S) CHESAPEAKE LIGHT NOT AVBL 64 E VA BEACH 2350 65 63 220/ 6/ 8 1011.4 3/ 8 3/ 8 DUCK 0000 76 62 270/ 9/ 11 1011.3 2 E DUCK 0000 64 N/A 1/ 7 OREGON INLET 0000 75 74 280/ 7/ 9 1011.9 13E OREGON INLT 2348 65 N/A 3/ 7 2/ 7 HATTERAS CG 0000 75 73 220/ 6/ 11 1012.2 DIAMOND BUOY 2350 76 80 250/ 17/ 21 1012.2 6/ 7 CAPE LOOKOUT 0000 74 230/ 11/ 15 1012.4 BEAUFORT LAB 0000 74 71 240/ 7/ 13 1012.0 30 SE NEW RVR IN 0008 75 78 250/ 19/ 25 1013.1 30 SE NEW RVR IN 0013 78 N/A 6/ 6 27 SE WRIGHTSVLE 0008 74 76 220/ 19/ 25 1013.5 5 SE WRIGHTSVLE 0008 75 74 220/ 14/ 21 1013.3 225 S CAPE HAT 2350 77 77 240/ 12/ 16 1015.6 5/ 7 3/ 7 41 SE CHARLESTON 0010 74 74 230/ 16/ 17 1014.5 $$

USA.gov is the U.S. government's official web portal to all federal, state and local government web resources and services.